[[{"header":{"parameterUnit":"m.s-1","parameterCategory":1,"la1":30.2991,"la2":30.254,"lo1":-89.0895,"lo2":-89.0444,"dy":0.0017,"dx":0.0017,"nx":28,"ny":28,"refTime":"2023-11-17T03:00:00:Z","depth":0,"parameterNumber":2,"parameterNumberName":"U-component_of_WINDS"},"data":[0,0,0,0,0,0,0,0,0,0,0,0,0,0,0,0,0,0,0,0,0,0,0,0,0,0,0,0,0,0,0,0,0,0,0,0,0,0,0,0,0,0,0,0,0,0,0,0,0,0,0,0,0,0,0,0,0,0,2.0771,2.0771,0,2.0827,2.0828,2.0828,2.076,2.0758,2.0755,2.0753,2.0814,2.0818,2.0822,0,0,0,0,0,0,0,0,0,0,0,0,0,2.0609,2.0612,2.0771,2.0771,2.0772,2.0827,2.0828,2.0829,2.0761,2.0758,2.0754,2.0752,2.0813,2.0817,2.0822,0,0,0,0,0,0,0,0,0,0,0,0,0,2.0674,2.0613,2.0771,2.0745,2.0743,2.0827,2.0828,2.0829,2.0761,2.0757,2.0754,2.075,2.0811,2.0817,2.0823,2.0936,0,0,2.0841,2.0844,0,0,0,0,0,0,0,0,2.067,2.068,2.0748,2.0747,2.0745,2.0783,2.0793,2.0865,2.0762,2.0754,2.0753,2.0748,2.0807,2.0813,2.0832,2.0938,2.0941,2.0841,2.0845,2.0848,2.0849,0,0,0,0,0,0,0,2.0666,2.0677,2.0793,2.0749,2.0747,2.0732,2.0737,2.0806,2.0801,2.0755,2.075,2.0757,2.0805,2.0826,2.0833,2.0942,2.0841,2.0847,2.085,2.0853,2.1146,2.115,0,0,0,0,0,0,2.0664,2.0674,2.0791,2.0795,2.0697,2.0738,2.0743,2.0774,2.08,2.0801,2.0761,2.0754,2.0818,2.0826,2.0835,2.0969,2.0848,2.0853,2.0857,2.1142,2.1147,2.1152,0,0,0,0,0,0,2.066,2.0675,2.0789,2.0733,2.0746,2.0745,2.078,2.0778,2.0798,2.0805,2.0804,2.0783,2.0815,2.0826,2.0911,2.0971,2.0856,2.0861,2.1137,2.1144,2.115,2.124,0,0,0,0,0,0,2.0656,2.0674,2.0716,2.0734,2.0749,2.0863,2.0784,2.0781,2.0808,2.08,2.0825,2.0826,2.0813,2.0903,2.0917,2.0977,2.0866,2.1132,2.114,2.1148,2.1231,2.1248,2.1263,0,0,0,0,0,2.065,2.0739,2.0718,2.0733,2.0801,2.0867,2.0876,2.0858,2.0813,2.0856,2.0861,2.0825,2.0962,2.0912,2.0928,2.099,2.1128,2.1138,2.1147,2.1224,2.1245,2.1262,0,0,0,0,0,0,2.0728,2.0741,2.0718,2.0815,2.084,2.0855,2.0908,2.0881,2.092,2.0911,2.0889,2.0895,2.0986,2.0997,2.0941,2.1102,2.1038,2.1051,2.1091,2.1111,2.1126,2.1122,2.0871,0,0,0,0,0,2.0756,2.0807,2.0816,2.0901,2.0915,2.091,2.0938,2.0922,2.0948,2.0959,2.0969,2.0997,2.1046,2.1079,2.1125,2.1233,2.1238,2.1284,2.13,2.1312,2.1324,2.1383,2.1404,2.1183,2.1183,2.1183,0,0,2.0815,2.0828,2.0862,2.0917,2.0935,2.099,2.0919,2.098,2.102,2.0968,2.1049,2.1058,2.1088,2.1185,2.1229,2.1197,2.1386,2.1325,2.1335,2.1339,2.1395,2.1416,2.1435,2.1189,2.1188,2.1187,0,0,2.095,2.0965,2.1038,2.1058,2.1086,2.1082,2.11,2.112,2.1124,2.1204,2.1167,2.1216,2.1301,2.1324,2.1347,2.1494,2.1463,2.151,2.1591,2.165,2.1667,2.1682,2.1736,2.1755,2.1521,2.1522,2.1522,0,2.102,2.1099,2.1079,2.1143,2.1169,2.1124,2.1199,2.1219,2.1261,2.1281,2.1245,2.1352,2.1369,2.1471,2.1507,2.1527,2.1548,2.1506,2.1666,2.1681,2.1695,2.1746,2.1766,2.1527,2.1526,2.1526,2.1525,0,2.1185,2.1241,2.1297,2.1338,2.137,2.1439,2.1431,2.1467,2.145,2.145,2.1534,2.1553,2.1603,2.1626,2.161,2.1728,2.1707,2.1669,2.1604,2.1722,2.1769,2.1788,2.1535,2.1533,2.1531,2.153,0,0,2.1368,2.1399,2.1419,2.1438,2.1467,2.1511,2.1579,2.1627,2.1658,2.169,2.1747,2.1822,2.1787,2.1813,2.18,2.1851,2.1967,2.1807,2.1807,2.1836,2.21,2.2128,2.215,2.1948,2.1951,2.1954,2.2097,0,2.1504,2.162,2.1605,2.1717,2.177,2.173,2.1789,2.1814,2.1818,2.1864,2.1868,2.1922,2.1871,2.1887,2.1936,2.1943,2.202,2.1932,2.2002,2.2004,2.1995,2.2175,2.2204,2.2338,2.2115,2.2119,2.2121,0,2.1677,2.1714,2.1832,2.1854,2.1876,2.1929,2.1973,2.2017,2.2046,2.2045,2.2076,2.2054,2.2124,2.2059,2.2156,2.2097,2.2125,2.2133,2.2137,2.2143,2.2069,2.2185,2.2381,2.2401,2.215,2.2147,2.2145,0,2.1799,2.1879,2.196,2.1978,2.2006,2.2045,2.2059,2.2083,2.2114,2.2153,2.2172,2.222,2.2245,2.2283,2.2275,2.2228,2.2375,2.2309,2.2377,2.2378,2.2409,2.2407,2.2612,2.2428,2.2428,2.2427,2.2427,0,2.1952,2.2026,2.2016,2.2065,2.2148,2.2131,2.2213,2.2222,2.2245,2.2297,2.2266,2.2316,2.2302,2.2352,2.2347,2.2429,2.2441,2.2443,2.2441,2.2446,2.2446,2.2463,2.2454,2.2433,2.2432,2.243,2.243,0,2.2102,2.2098,2.2184,2.2204,2.2211,2.2271,2.2289,2.2337,2.2338,2.2405,2.242,2.2423,2.248,2.2476,2.2541,2.2538,2.2639,2.2626,2.2629,2.2626,2.2695,2.2689,2.2918,2.2947,2.2745,2.2747,2.2748,0,2.2199,2.2255,2.2282,2.2314,2.233,2.2383,2.2414,2.2401,2.2434,2.2473,2.2517,2.2571,2.2614,2.2708,2.2717,2.2767,2.2755,2.2832,2.2762,2.2766,2.2756,2.2753,2.2759,2.2845,2.2847,2.2849,2.2851,0,2.2373,2.2369,2.2414,2.246,2.2497,2.2533,2.2565,2.2594,2.2584,2.2624,2.2682,2.2716,2.2782,2.2838,2.2886,2.2901,2.2876,2.2873,2.2891,2.2897,2.2896,2.2898,2.2666,2.2867,2.2866,2.2865,2.2864,2.2863,2.2499,2.2547,2.2574,2.2626,2.2649,2.2681,2.2727,2.2735,2.2783,2.2835,2.2826,2.2891,2.2921,2.2983,2.3004,2.3056,2.3029,2.3055,2.3062,2.3069,2.3077,2.2889,2.3065,2.3064,2.3064,2.3064,2.3063,0,2.2671,2.2687,2.2735,2.2781,2.2823,2.2795,2.283,2.2867,2.2925,2.2954,2.2997,2.3065,2.3119,2.3133,2.3186,2.3225,2.3215,2.3239,2.3236,2.324,2.3098,2.3077,2.3247,2.3247,2.3247,2.3247,2.3247,2.3247,2.2765,2.2845,2.2845,2.2938,2.2953,2.3016,2.3039,2.3069,2.3092,2.3169,2.3214,2.3223,2.3247,2.3301,2.335,2.3353,2.3374,2.3403,2.3402,2.3268,2.325,2.3232,2.3212,2.3408,2.3408,2.3539,2.354,2.3541]},{"header":{"parameterUnit":"m.s-1","parameterCategory":1,"la1":30.2991,"la2":30.254,"lo1":-89.0895,"lo2":-89.0444,"dy":0.0017,"dx":0.0017,"nx":28,"ny":28,"refTime":"2023-11-17T03:00:00:Z","depth":0,"parameterNumber":3,"parameterNumberName":"V-component_of_WINDS"},"data":[0,0,0,0,0,0,0,0,0,0,0,0,0,0,0,0,0,0,0,0,0,0,0,0,0,0,0,0,0,0,0,0,0,0,0,0,0,0,0,0,0,0,0,0,0,0,0,0,0,0,0,0,0,0,0,0,0,0,-0.1663,-0.1664,0,-0.1677,-0.1677,-0.1677,-0.1719,-0.172,-0.1721,-0.1722,-0.1735,-0.1735,-0.1734,0,0,0,0,0,0,0,0,0,0,0,0,0,-0.1674,-0.1674,-0.1663,-0.1664,-0.1664,-0.1677,-0.1677,-0.1677,-0.1719,-0.172,-0.1721,-0.1722,-0.1735,-0.1735,-0.1734,0,0,0,0,0,0,0,0,0,0,0,0,0,-0.1677,-0.1674,-0.1663,-0.1686,-0.1688,-0.1677,-0.1677,-0.1677,-0.1719,-0.172,-0.1721,-0.1723,-0.1735,-0.1735,-0.1734,-0.1702,0,0,-0.1732,-0.1731,0,0,0,0,0,0,0,0,-0.1677,-0.1676,-0.1683,-0.1684,-0.1687,-0.1698,-0.1686,-0.1686,-0.1718,-0.1707,-0.1722,-0.1723,-0.1721,-0.1722,-0.1721,-0.1702,-0.1703,-0.1732,-0.1731,-0.1731,-0.1731,0,0,0,0,0,0,0,-0.1676,-0.1676,-0.1669,-0.1683,-0.1685,-0.1696,-0.1698,-0.1686,-0.1706,-0.1708,-0.1711,-0.1712,-0.1723,-0.1722,-0.1722,-0.1703,-0.1732,-0.1731,-0.173,-0.173,-0.1662,-0.166,0,0,0,0,0,0,-0.1673,-0.1676,-0.1668,-0.1669,-0.1685,-0.1695,-0.1697,-0.1693,-0.1707,-0.171,-0.1711,-0.1714,-0.1723,-0.1723,-0.1723,-0.1688,-0.1731,-0.173,-0.173,-0.1663,-0.1661,-0.166,0,0,0,0,0,0,-0.1673,-0.1672,-0.1668,-0.1673,-0.1674,-0.1693,-0.1688,-0.1692,-0.1692,-0.1709,-0.1713,-0.1706,-0.1724,-0.1724,-0.1707,-0.1689,-0.173,-0.1729,-0.1664,-0.1662,-0.166,-0.1617,0,0,0,0,0,0,-0.1673,-0.1672,-0.1659,-0.1673,-0.1673,-0.1652,-0.1687,-0.1692,-0.169,-0.1694,-0.1705,-0.1709,-0.1725,-0.1708,-0.1707,-0.1689,-0.1728,-0.1666,-0.1664,-0.1661,-0.162,-0.1614,-0.1608,0,0,0,0,0,-0.1673,-0.1646,-0.1658,-0.1657,-0.1658,-0.165,-0.1651,-0.167,-0.1689,-0.1677,-0.1688,-0.1708,-0.1691,-0.1706,-0.1705,-0.1686,-0.1667,-0.1664,-0.1661,-0.1623,-0.1615,-0.1608,0,0,0,0,0,0,-0.1628,-0.1648,-0.1662,-0.1638,-0.1642,-0.1657,-0.1643,-0.1661,-0.166,-0.1664,-0.1688,-0.169,-0.1671,-0.1677,-0.1693,-0.1657,-0.1683,-0.1679,-0.1654,-0.1647,-0.1641,-0.164,-0.1728,0,0,0,0,0,-0.1616,-0.1608,-0.1625,-0.1602,-0.1604,-0.1623,-0.162,-0.1635,-0.1641,-0.1643,-0.1653,-0.1658,-0.1654,-0.165,-0.1647,-0.1621,-0.1625,-0.1608,-0.1602,-0.1597,-0.1594,-0.1583,-0.1576,-0.165,-0.165,-0.165,0,0,-0.1589,-0.1599,-0.1592,-0.1593,-0.1599,-0.1591,-0.1624,-0.1614,-0.1609,-0.1641,-0.1627,-0.1635,-0.1642,-0.1621,-0.1612,-0.1625,-0.1575,-0.1593,-0.1589,-0.1588,-0.1579,-0.1572,-0.1566,-0.1647,-0.1648,-0.1648,0,0,-0.1537,-0.1543,-0.1526,-0.1531,-0.1539,-0.1552,-0.1548,-0.1561,-0.1568,-0.1554,-0.1579,-0.1574,-0.1565,-0.157,-0.1572,-0.1525,-0.1544,-0.1523,-0.1492,-0.1481,-0.1475,-0.147,-0.1455,-0.1449,-0.152,-0.1519,-0.1519,0,-0.1503,-0.1492,-0.1514,-0.1503,-0.1504,-0.1534,-0.1517,-0.1521,-0.1528,-0.1528,-0.1542,-0.1535,-0.1542,-0.1524,-0.1512,-0.1512,-0.1509,-0.1522,-0.1474,-0.1469,-0.1465,-0.1451,-0.1445,-0.1517,-0.1517,-0.1517,-0.1518,0,-0.1451,-0.1443,-0.1428,-0.1435,-0.1434,-0.142,-0.1441,-0.1437,-0.1453,-0.1465,-0.1452,-0.1461,-0.1462,-0.1458,-0.1473,-0.1443,-0.1451,-0.147,-0.1496,-0.1455,-0.1442,-0.1437,-0.1513,-0.1514,-0.1515,-0.1516,0,0,-0.137,-0.1391,-0.1385,-0.139,-0.1402,-0.1397,-0.1385,-0.1386,-0.1384,-0.1388,-0.1379,-0.1373,-0.1391,-0.1393,-0.1408,-0.1398,-0.1363,-0.1418,-0.1419,-0.1409,-0.1334,-0.1321,-0.1314,-0.1376,-0.1375,-0.1374,-0.1334,0,-0.1322,-0.1304,-0.1324,-0.1301,-0.1296,-0.1325,-0.1316,-0.1322,-0.1334,-0.1331,-0.1344,-0.134,-0.1363,-0.1364,-0.1356,-0.1369,-0.1349,-0.1372,-0.137,-0.1369,-0.1368,-0.1307,-0.1293,-0.1254,-0.1329,-0.1328,-0.1327,0,-0.1264,-0.1267,-0.1243,-0.126,-0.1258,-0.1249,-0.1253,-0.125,-0.1259,-0.1268,-0.1271,-0.129,-0.1281,-0.1307,-0.1296,-0.1311,-0.1312,-0.1318,-0.1317,-0.1318,-0.1346,-0.1308,-0.1242,-0.1236,-0.1319,-0.132,-0.132,0,-0.1209,-0.1207,-0.1194,-0.1196,-0.1214,-0.1207,-0.1215,-0.1225,-0.1226,-0.123,-0.1231,-0.1233,-0.1234,-0.1236,-0.1257,-0.1273,-0.1244,-0.127,-0.1252,-0.1252,-0.1245,-0.1245,-0.1179,-0.1243,-0.1243,-0.1243,-0.1244,0,-0.1154,-0.1139,-0.117,-0.1161,-0.1146,-0.1171,-0.1155,-0.1165,-0.1175,-0.117,-0.1196,-0.1191,-0.1217,-0.1215,-0.1231,-0.1221,-0.1221,-0.1229,-0.1234,-0.1227,-0.1226,-0.1228,-0.1232,-0.1242,-0.1242,-0.1243,-0.1243,0,-0.1091,-0.111,-0.1098,-0.1117,-0.1121,-0.1109,-0.1126,-0.112,-0.1134,-0.1127,-0.1127,-0.1149,-0.1149,-0.1169,-0.1172,-0.1183,-0.1166,-0.1175,-0.1163,-0.1167,-0.1148,-0.115,-0.1082,-0.1075,-0.1142,-0.1141,-0.1141,0,-0.1055,-0.1044,-0.1063,-0.1062,-0.1068,-0.1065,-0.1067,-0.1091,-0.1091,-0.1102,-0.1095,-0.1097,-0.11,-0.1098,-0.1114,-0.1118,-0.1127,-0.1103,-0.1128,-0.1123,-0.1129,-0.113,-0.113,-0.1098,-0.1097,-0.1097,-0.1096,0,-0.099,-0.1001,-0.1001,-0.1006,-0.1007,-0.1011,-0.1018,-0.1015,-0.1042,-0.1041,-0.1041,-0.1044,-0.1048,-0.105,-0.1057,-0.1066,-0.1086,-0.1088,-0.1085,-0.1079,-0.1073,-0.1078,-0.115,-0.109,-0.109,-0.1091,-0.1091,-0.1091,-0.094,-0.0933,-0.0946,-0.0946,-0.0954,-0.096,-0.0956,-0.097,-0.0971,-0.0976,-0.0991,-0.0989,-0.1001,-0.1013,-0.102,-0.102,-0.1032,-0.1026,-0.1025,-0.1023,-0.102,-0.1072,-0.1021,-0.1021,-0.1021,-0.1021,-0.1021,0,-0.0878,-0.0888,-0.0888,-0.0897,-0.0898,-0.0918,-0.0926,-0.0926,-0.0924,-0.0934,-0.0937,-0.0938,-0.0941,-0.0959,-0.0964,-0.0961,-0.097,-0.0961,-0.0962,-0.0964,-0.1008,-0.1012,-0.0954,-0.0954,-0.0954,-0.0954,-0.0954,-0.0954,-0.0846,-0.0836,-0.0849,-0.0844,-0.0854,-0.0853,-0.0857,-0.0863,-0.0871,-0.0872,-0.0874,-0.0886,-0.0899,-0.0906,-0.091,-0.0915,-0.0917,-0.0905,-0.0913,-0.0954,-0.0961,-0.0967,-0.0971,-0.0905,-0.0905,-0.087,-0.0869,-0.0869]}]]